| Date | Temp | Humidity | Rainfall | Dew Point | Wind Direction | Wind Speed | Wind Pressure | Condition | Visibility |
|---|---|---|---|---|---|---|---|---|---|
| 2025-04-28 20:02:13 | 27 | 84 | 24 | 180 | 5.7 | 1008 | Lightning | 10 KM | |
| 2025-04-28 19:01:06 | 28 | 83 | 25 | 070 | 3.8 | 1008 | Lightning | 10 KM | |
| 2025-04-28 17:58:55 | 30 | 77 | 25 | 320 | 9.5 | 1007 | Partly Cloudy (Day) | 15 KM | |
| 2025-04-28 17:01:10 | 30 | 75 | 25 | 310 | 11.4 | 1007 | Distant showers | 15 KM | |
| 2025-04-28 15:58:21 | 31 | 71 | 25 | 300 | 15.2 | 1006 | Distant showers | 15 KM | |
| 2025-04-28 15:00:43 | 30 | 74 | 25 | 310 | 15.2 | 1007 | Distant showers | 15 KM | |
| 2025-04-28 13:58:44 | 30 | 78 | 26 | 220 | 5.7 | 1008 | Thunderstorm | 15 KM | |
| 2025-04-28 13:01:41 | 27 | 90 | 0.01 | 25 | 190 | 10 | 1009 | Thundershowers | 10 km |
| 2025-04-28 12:01:28 | 30 | 72 | 0.0 | 25 | 320 | 14 | 1009 | Cloudy | 20 km |
| 2025-04-28 10:59:45 | 31 | 65 | 0.0 | 24 | 340 | 6 | 1010 | Cloudy | 20 km |
| 2025-04-28 10:01:32 | 31 | 67 | 0.0 | 24 | 210 | 3.8 | 1010 | Partly Cloudy (Day) | 20KM |
| 2025-04-28 09:01:34 | 28 | 80 | 0.0 | 24 | 210 | 7.6 | 1010 | Cloudy | 20km |
| 2025-04-28 07:58:23 | 26 | 89 | 0.00 | 24 | 150 | 1.9 | 1010 | Cloudy | 15 KM |
| 2025-04-28 07:00:15 | 25 | 95 | 0.0 | 24 | 150 | 1.9 | 1009 | Cloudy | 10 KM |
| 2025-04-28 05:59:52 | 25 | 95 | 0.00 | 24 | 210 | 5.7 | 1009 | Cloudy | 10 KM |
| 2025-04-28 04:59:54 | 25 | 93 | 0.00 | 24 | 190 | 7.6 | 1008 | Partly Cloudy (Day) | 10 KM |
| 2025-04-28 03:59:21 | 25 | 94 | 0.00 | 24 | 170 | 5.7 | 1008 | Cloudy | 10 km |
| 2025-04-28 02:58:21 | 25 | 94 | 0.00 | 24 | 140 | 3.8 | 1008 | Cloudy | 10 km |
| 2025-04-28 02:06:25 | 26 | 93 | 0.00 | 24 | 190 | 5.7 | 1009 | Partly Cloudy (Night) | 10 Km |
| 2025-04-28 00:59:37 | 26 | 91 | 0.00 | 24 | 180 | 3.8 | 1009 | Partly Cloudy (Night) | 10 km |
| 2025-04-28 00:01:11 | 26 | 90 | 0.00 | 24 | 200 | 3.8 | 1010 | Partly Cloudy (Night) | 10 km |
| 2025-04-27 23:00:19 | 26 | 88 | 0.00 | 24 | 190 | 3.8 | 1011 | Partly Cloudy (Night) | 10 Km |
| 2025-04-27 22:02:34 | 26 | 88 | 0.00 | 24 | 330 | 9.5 | 1011 | Thundershowers | 10 Km |
| 2025-04-27 20:59:51 | 26 | 88 | 0 | 24 | 090 | 1.9 | 1010 | Thundershowers | 10 KM |
| 2025-04-27 19:59:06 | 27 | 90 | 0 | 25 | 130 | 5.7 | 1009 | Night Thunderstorm | 10 KM |